Poplar Bluff, MO

8:42 PM CST on February 13, 2016 (GMT -0600)
Poplar Bluff Municipal

Weather History for KPOF - August, 2014

Change the Weather History Date:

Friday, August 8, 2014

  Actual Average Record
Temperature  
Mean Temperature 78 °F -  
Max Temperature 89 °F 88 °F 109 °F (1930)
Min Temperature 68 °F 66 °F 53 °F (1976)
Cooling Degree Days 13    
Growing Degree Days 28 (Base 50)    
Moisture  
Dew Point 70 °F    
Average Humidity 83    
Maximum Humidity 93    
Minimum Humidity 59    
Precipitation  
Precipitation 0.08 in - - ()
Sea Level Pressure  
Sea Level Pressure 29.89 in    
Wind  
Wind Speed 1 mph (ESE)    
Max Wind Speed 6 mph    
Max Gust Speed -    
Visibility 6 miles    
Events Fog , Rain , Thunderstorm    
Averages and records for this station are not official NWS values.
T = Trace of Precipitation, MM = Missing Value Source: NWS Daily Summary

Daily Weather History Graph

Daily Weather History Graph

Search for Another Location

Airport or City:

Trip Planner

Search our weather history database for the weather conditions in past years. The results will help you decide how hot, cold, wet, or windy it might be!

Date:

Astronomy

Aug. 08, 2014 Rise Set
Actual Time 6:12 AM CDT 8:00 PM CDT
Civil Twilight 5:44 AM CDT 8:28 PM CDT
Nautical Twilight 5:10 AM CDT 9:02 PM CDT
Astronomical Twilight 4:34 AM CDT 9:38 PM CDT
Moon 6:11 PM CDT (8/8) 3:46 AM CDT (8/8)
Length of Visible Light 14h 43m
Length of Day
13h 47m
Waxing Gibbous, 94% of the Moon is Illuminated
Aug 8
Waxing Gibbous
Aug 10
Full
Aug 17
Last Quarter
Aug 25
New
Sep 2
First Quarter

Hourly Weather History & Observations

Time (CDT) Temp. Heat Index Dew Point Humidity Pressure Visibility Wind Dir Wind Speed Gust Speed Precip Events Conditions
12:25 AM 69.1 °F - 66.0 °F 90% 29.89 in 3.0 mi Calm Calm - N/A   Clear
12:53 AM 69.1 °F - 66.0 °F 90% 29.88 in 6.0 mi Calm Calm - N/A   Scattered Clouds
1:06 AM 69.1 °F - 66.0 °F 90% 29.89 in 5.0 mi Calm Calm - N/A   Mostly Cloudy
1:18 AM 69.1 °F - 66.0 °F 90% 29.90 in 5.0 mi Calm Calm - N/A   Overcast
1:30 AM 69.1 °F - 66.0 °F 90% 29.89 in 1.8 mi Calm Calm - N/A   Overcast
1:42 AM 69.1 °F - 66.0 °F 90% 29.89 in 0.8 mi Calm Calm - N/A   Overcast
1:53 AM 68.0 °F - 64.9 °F 90% 29.88 in 0.5 mi Calm Calm - N/A Fog Fog
2:13 AM 69.1 °F - 66.0 °F 90% 29.89 in 1.2 mi Calm Calm - N/A   Overcast
2:19 AM 69.1 °F - 66.0 °F 90% 29.88 in 3.0 mi East 3.5 mph - N/A   Overcast
2:53 AM 71.1 °F - 66.9 °F 87% 29.88 in 3.0 mi Calm Calm - N/A   Overcast
3:53 AM 71.1 °F - 68.0 °F 90% 29.88 in 2.5 mi Calm Calm - N/A   Overcast
4:13 AM 71.1 °F - 68.0 °F 90% 29.88 in 3.0 mi Calm Calm - 0.00 in Rain Light Rain
4:21 AM 71.1 °F - 68.0 °F 90% 29.88 in 1.8 mi Variable 3.5 mph - 0.02 in Rain Heavy Rain
4:28 AM 71.1 °F - 69.1 °F 93% 29.88 in 2.0 mi Variable 3.5 mph - 0.08 in Rain Rain
4:31 AM 71.1 °F - 69.1 °F 93% 29.88 in 3.0 mi SE 4.6 mph - 0.08 in Rain Light Rain
4:40 AM 72.0 °F - 69.1 °F 91% 29.88 in 6.0 mi SSE 3.5 mph - 0.08 in Thunderstorm Overcast
4:53 AM 72.0 °F - 69.1 °F 91% 29.87 in 5.0 mi SE 5.8 mph - 0.08 in Thunderstorm Overcast
5:11 AM 72.0 °F - 69.1 °F 91% 29.88 in 4.0 mi Calm Calm - N/A   Overcast
5:53 AM 72.0 °F - 69.1 °F 91% 29.87 in 5.0 mi Calm Calm - N/A   Overcast
6:17 AM 72.0 °F - 69.1 °F 91% 29.89 in 5.0 mi Calm Calm - N/A   Overcast
6:53 AM 72.0 °F - 69.1 °F 91% 29.88 in 3.0 mi Calm Calm - N/A   Overcast
7:53 AM 73.9 °F - 70.0 °F 87% 29.90 in 5.0 mi Calm Calm - N/A   Overcast
8:13 AM 73.9 °F - 70.0 °F 87% 29.91 in 5.0 mi Calm Calm - N/A   Overcast
8:53 AM 73.9 °F - 71.1 °F 91% 29.92 in 5.0 mi Calm Calm - N/A   Overcast
9:09 AM 75.0 °F - 71.1 °F 87% 29.93 in 4.0 mi Calm Calm - 0.00 in Rain Light Rain
9:21 AM 75.0 °F - 71.1 °F 87% 29.93 in 2.0 mi Calm Calm - 0.00 in   Overcast
9:53 AM 75.9 °F - 72.0 °F 87% 29.91 in 3.0 mi North - - 0.00 in   Overcast
10:18 AM 78.1 °F - 73.0 °F 84% 29.93 in 7.0 mi WSW 4.6 mph - N/A   Overcast
10:53 AM 80.1 °F 84.2 °F 73.0 °F 79% 29.90 in 9.0 mi Calm Calm - N/A   Overcast
11:22 AM 80.1 °F 84.2 °F 73.0 °F 79% 29.91 in 10.0 mi SE 3.5 mph - N/A   Overcast
11:53 AM 82.9 °F 88.0 °F 72.0 °F 69% 29.88 in 10.0 mi Calm Calm - N/A   Overcast
12:53 PM 84.0 °F 91.2 °F 73.9 °F 72% 29.89 in 10.0 mi Variable 3.5 mph - N/A   Mostly Cloudy
1:22 PM 82.9 °F 88.8 °F 73.0 °F 72% 29.91 in 10.0 mi NE 5.8 mph - N/A   Mostly Cloudy
1:44 PM 84.9 °F 91.4 °F 73.0 °F 67% 29.90 in 10.0 mi Variable 3.5 mph - N/A   Partly Cloudy
1:53 PM 86.0 °F 93.8 °F 73.9 °F 67% 29.88 in 10.0 mi East 4.6 mph - N/A   Partly Cloudy
2:53 PM 86.0 °F 93.0 °F 73.0 °F 65% 29.86 in 10.0 mi East 3.5 mph - N/A   Mostly Cloudy
3:53 PM 87.1 °F 94.5 °F 73.0 °F 63% 29.86 in 10.0 mi NE 5.8 mph - N/A   Mostly Cloudy
4:53 PM 87.1 °F 93.6 °F 72.0 °F 61% 29.86 in 10.0 mi Calm Calm - N/A   Clear
5:53 PM 88.0 °F 94.7 °F 72.0 °F 59% 29.85 in 10.0 mi Calm Calm - N/A   Clear
6:53 PM 82.9 °F 90.2 °F 75.0 °F 77% 29.84 in 10.0 mi SE 4.6 mph - N/A   Mostly Cloudy
7:53 PM 81.0 °F 86.2 °F 73.9 °F 79% 29.86 in 10.0 mi Calm Calm - N/A   Scattered Clouds
8:53 PM 79.0 °F - 73.9 °F 84% 29.87 in 10.0 mi Calm Calm - N/A   Partly Cloudy
9:53 PM 79.0 °F - 73.0 °F 82% 29.88 in 10.0 mi Calm Calm - N/A   Mostly Cloudy
10:53 PM 77.0 °F - 73.0 °F 88% 29.90 in 8.0 mi Calm Calm - N/A   Overcast